Weather History for Kulusuk, Greenland

Change the Weather History Date:

Wednesday, October 16, 2013

  Actual Average Record
Temperature  
Mean Temperature 32 °F -  
Max Temperature 35 °F 29 °F 46 °F (2003)
Min Temperature 30 °F 26 °F 23 °F (1998)
Degree Days  
Heating Degree Days 32    
Moisture  
Dew Point 28 °F    
Average Humidity 85    
Maximum Humidity 93    
Minimum Humidity 68    
Precipitation  
Precipitation 0.00 in - - ()
Sea Level Pressure  
Sea Level Pressure 30.18 in    
Wind  
Wind Speed 5 mph ()    
Max Wind Speed 14 mph    
Max Gust Speed -    
Visibility 6.8 miles    
Events Fog    
Averages and records for this station are not official NWS values.
T = Trace of Precipitation, MM = Missing Value Source: Averaged Metar Reports

Daily Weather History Graph

Daily Weather History Graph

Search for Another Location

Airport:

Trip Planner

Search our weather history database for the weather conditions in past years. The results will help you decide how hot, cold, wet, or windy it might be!

Date:

Astronomy

Oct. 16, 2013 Rise Set
Actual Time 7:27 AM WGST 4:59 PM WGST
Civil Twilight 6:35 AM WGST 5:51 PM WGST
Nautical Twilight 5:36 AM WGST 6:49 PM WGST
Astronomical Twilight 4:37 AM WGST 7:48 PM WGST
Moon 4:13 PM WGST (10/16) 3:53 AM WGST (10/16)
Length of Visible Light 11h 15m
Length of Day
9h 32m
Waxing Gibbous, 93% of the Moon is Illuminated
Oct 16
Waxing Gibbous
Oct 18
Full
Oct 26
Last Quarter
Nov 3
New
Nov 10
First Quarter

Hourly Weather History & Observations

Time (WGST) Temp. Windchill Dew Point Humidity Pressure Visibility Wind Dir Wind Speed Gust Speed Precip Events Conditions
12:20 AM 33.8 °F - 30.2 °F 87% 30.15 in 6.2 mi North 2.3 mph - N/A   Unknown
12:50 AM 33.8 °F - 30.2 °F 87% 30.15 in 6.2 mi Variable 2.3 mph - N/A   Partly Cloudy
1:00 AM 33 °F - 28 °F 76% 30.17 in 22 mi SSE 2.3 mph - -   Scattered Clouds
1:20 AM 33.8 °F - 30.2 °F 87% 30.15 in 6.2 mi Variable 2.3 mph - N/A   Unknown
1:50 AM 32.0 °F - 28.4 °F 87% 30.15 in 6.2 mi Variable 2.3 mph - N/A   Unknown
2:20 AM 33.8 °F 29.6 °F 28.4 °F 81% 30.15 in 6.2 mi Variable 4.6 mph - N/A   Partly Cloudy
2:50 AM 32.0 °F - 28.4 °F 87% 30.15 in 6.2 mi Variable 1.2 mph - N/A   Unknown
3:20 AM 32.0 °F 28.7 °F 28.4 °F 87% 30.15 in 6.2 mi Variable 3.5 mph - N/A   Partly Cloudy
3:50 AM 32.0 °F - 28.4 °F 87% 30.15 in 6.2 mi Variable 2.3 mph - N/A   Unknown
4:00 AM 32 °F - 27 °F 76% 30.17 in 22 mi SSE 3.5 mph - -   Scattered Clouds
4:20 AM 32.0 °F 26.4 °F 28.4 °F 87% 30.15 in 6.2 mi East 5.8 mph - N/A   Partly Cloudy
4:50 AM 32.0 °F 23.6 °F 28.4 °F 87% 30.15 in 6.2 mi East 10.4 mph - N/A   Scattered Clouds
5:20 AM 32.0 °F 25.6 °F 28.4 °F 87% 30.15 in 6.2 mi East 6.9 mph - N/A   Mostly Cloudy
5:50 AM 32.0 °F 22.5 °F 28.4 °F 87% 30.15 in 6.2 mi East 12.7 mph - N/A   Mostly Cloudy
6:20 AM 30.2 °F 22.6 °F 28.4 °F 93% 30.15 in 6.2 mi ENE 8.1 mph - N/A   Partly Cloudy
6:50 AM 30.2 °F 23.4 °F 28.4 °F 93% 30.15 in 6.2 mi East 6.9 mph - N/A   Mostly Cloudy
7:00 AM 31 °F - 27 °F 78% 30.17 in 22 mi East 9.2 mph - -   Mostly Cloudy
7:20 AM 30.2 °F 24.3 °F 28.4 °F 93% 30.15 in 6.2 mi East 5.8 mph - N/A   Mostly Cloudy
7:50 AM 30.2 °F 22.6 °F 28.4 °F 93% 30.15 in 6.2 mi East 8.1 mph - N/A   Mostly Cloudy
8:50 AM 30.2 °F 25.4 °F 28.4 °F 93% 30.15 in 6.2 mi North 4.6 mph - N/A   Mostly Cloudy
9:50 AM 30.2 °F - 28.4 °F 93% 30.15 in 6.2 mi West 2.3 mph - N/A   Mostly Cloudy
10:00 AM 31 °F - 28 °F 83% 30.18 in 22 mi WNW 2.3 mph - -   Mostly Cloudy
10:50 AM 32.0 °F 28.7 °F 28.4 °F 87% 30.15 in 6.2 mi West 3.5 mph - N/A   Mostly Cloudy
11:50 AM 32.0 °F - 28.4 °F 87% 30.15 in 6.2 mi NW 2.3 mph - N/A   Scattered Clouds
12:50 PM 32.0 °F 28.7 °F 28.4 °F 87% 30.15 in 6.2 mi North 3.5 mph - N/A   Partly Cloudy
1:00 PM 33 °F - 28 °F 75% 30.16 in 22 mi North 4.6 mph - -   Partly Cloudy
1:50 PM 33.8 °F - 28.4 °F 81% 30.15 in 6.2 mi Variable 1.2 mph - N/A   Partly Cloudy
2:50 PM 33.8 °F 29.6 °F 28.4 °F 81% 30.15 in 6.2 mi WSW 4.6 mph - N/A Fog Mostly Cloudy
3:50 PM 32.0 °F - 30.2 °F 93% 30.15 in 6.2 mi WSW 2.3 mph - N/A   Mostly Cloudy
4:00 PM 33 °F - 29 °F 82% 30.18 in 19 mi WSW 2.3 mph - -   Overcast
4:50 PM 32.0 °F 27.5 °F 30.2 °F 93% 30.18 in 6.2 mi West 4.6 mph - N/A   Mostly Cloudy
5:20 PM 32.0 °F 27.5 °F 30.2 °F 93% 30.18 in 6.2 mi WSW 4.6 mph - N/A   Mostly Cloudy
5:50 PM 32.0 °F 27.5 °F 28.4 °F 87% 30.18 in 6.2 mi ENE 4.6 mph - N/A   Unknown
6:20 PM 32.0 °F 28.7 °F 28.4 °F 87% 30.18 in 6.2 mi NW 3.5 mph - N/A   Partly Cloudy
6:50 PM 32.0 °F 27.5 °F 28.4 °F 87% 30.21 in 6.2 mi WNW 4.6 mph - N/A   Scattered Clouds
7:00 PM 32 °F - 27 °F 75% 30.22 in 19 mi East 5.8 mph - -   Scattered Clouds
7:20 PM 32.0 °F 22.5 °F 28.4 °F 87% 30.21 in 6.2 mi East 12.7 mph - N/A   Partly Cloudy
7:50 PM 32.0 °F 23.6 °F 26.6 °F 80% 30.21 in 6.2 mi East 10.4 mph - N/A   Partly Cloudy
8:20 PM 32.0 °F 22.5 °F 26.6 °F 80% 30.21 in 6.2 mi East 12.7 mph - N/A   Partly Cloudy
8:50 PM 32.0 °F 22.5 °F 26.6 °F 80% 30.21 in 6.2 mi East 12.7 mph - N/A   Scattered Clouds
9:20 PM 32.0 °F 23.6 °F 26.6 °F 80% 30.21 in 6.2 mi East 10.4 mph - N/A   Scattered Clouds
9:50 PM 32.0 °F 22.5 °F 26.6 °F 80% 30.24 in 6.2 mi East 12.7 mph - N/A   Partly Cloudy
10:00 PM 32 °F - 25 °F 68% 30.25 in 22 mi ENE 13.8 mph - -   Scattered Clouds
10:20 PM 32.0 °F 22.5 °F 26.6 °F 80% 30.24 in 6.2 mi East 12.7 mph - N/A   Scattered Clouds
10:50 PM 32.0 °F 23.6 °F 26.6 °F 80% 30.24 in 6.2 mi East 10.4 mph - N/A   Mostly Cloudy
11:20 PM 32.0 °F 24.2 °F 26.6 °F 80% 30.24 in 6.2 mi East 9.2 mph - N/A   Mostly Cloudy
11:50 PM 32.0 °F 24.8 °F 26.6 °F 80% 30.24 in 6.2 mi East 8.1 mph - N/A   Mostly Cloudy